#timestamp,LO_Frequency,Hit 
1504566015.5,286047004.1,N
1504566035.3,286047000.6,N
1504566055.2,286046999.3,N
1504566075.9,286046997.2,N
1504566095.7,286046998.8,N
1504566115.6,286047002.3,N
1504566135.4,286047009.2,N
1504566155.2,286047010.4,N
1504566175.1,286047013.2,N
1504566176.0,286047013.2,N
1504566195.8,286047018.1,P
1504566215.6,286047017.3,N
1504566235.5,286047019.3,P
1504566255.3,286047019.0,P
1504566275.1,286047005.7,N
1504566295.9,286047005.1,N
1504566315.7,286047001.9,N
1504566335.5,286047003.9,N
1504566355.4,286047005.7,N
1504566375.2,286047004.8,N
1504566395.0,286047010.7,N
1504566395.9,286047010.7,N
1504566415.8,286047012.2,N
1504566435.6,286047009.7,N
1504566455.4,286047009.7,N
1504566475.2,286047007.7,N
1504566495.1,286047009.7,N
1504566496.0,286047009.7,N
1504566515.8,286047012.9,P
1504566535.7,286047008.2,P
1504566555.5,286047004.9,N
1504566575.3,286047005.9,N
1504566595.1,286047000.4,N
1504566615.9,286047002.3,N
1504566635.7,286047001.7,N
1504566655.5,286046999.4,N
1504566675.4,286046997.6,N
1504566695.2,286047002.4,N
1504566715.0,286047005.5,N
1504566715.9,286047005.5,N
1504566735.8,286047000.6,N
1504566755.6,286047002.2,N
1504566775.4,286047000.4,N
1504566795.3,286047001.5,N
1504566815.1,286047003.7,N
1504566816.0,286047003.7,N
1504566835.8,286047001.7,N
1504566855.7,286047006.5,N
1504566875.5,286047007.5,N
1504566895.3,286047005.8,N
1504566915.1,286046999.9,N
1504566935.9,286047000.2,N
1504566955.7,286047000.6,N
1504566975.5,286047005.5,N
1504566995.4,286047000.2,N
1504567015.2,286047000.0,N
1504567035.0,286047000.8,N
1504567035.9,286047000.8,N
1504567055.8,286047001.0,N
1504567075.6,286047000.2,N
1504567095.4,286047005.5,N
1504567115.3,286047004.7,N
1504567135.1,286047009.2,P
1504567155.8,286047009.1,N
1504567175.7,286047006.4,N
1504567195.5,286046998.4,N
1504567215.3,286046995.6,N
1504567235.2,286046986.9,N
1504567255.9,286046987.6,N
1504567275.7,286046983.2,N
1504567295.5,286046980.0,N
1504567315.4,286046979.9,N
1504567335.2,286046978.2,N
1504567355.0,286046975.8,N
1504567355.9,286046975.8,N
1504567375.8,286046979.7,N
1504567395.6,286046980.6,N
1504567415.4,286046979.4,N
1504567435.3,286046981.9,N
1504567455.1,286046981.1,N
1504567456.0,286046981.1,N
1504567475.8,286046983.6,N
1504567495.7,286046982.3,N
1504567515.5,286046978.0,N
1504567535.3,286046975.6,N
1504567555.2,286046975.3,N
1504567575.9,286046974.6,N
1504567595.7,286046973.8,N
1504567615.5,286046975.2,N
1504567635.4,286046974.5,N
1504567655.2,286046974.4,N
1504567675.0,286046976.7,N
1504567675.9,286046976.7,N
1504567695.8,286046974.1,N
1504567715.6,286046976.9,P
1504567735.4,286046993.5,P
1504567755.3,286046992.1,N
1504567775.1,286046990.2,N
1504567795.8,286046991.6,N
1504567815.7,286046993.1,N
1504567835.5,286046991.7,N
1504567855.3,286046991.4,N
1504567875.2,286046990.3,N
1504567895.9,286046993.8,N
1504567915.7,286046994.3,N
1504567935.6,286046989.0,N
1504567955.4,286046989.0,N
1504567975.2,286046992.3,N
1504567995.1,286046993.4,N
1504567996.0,286046993.4,N
1504568015.8,286046991.7,N
1504568035.6,286046990.2,N
1504568055.4,286046991.7,N
1504568075.3,286046991.7,N
1504568095.1,286046993.9,N
1504568115.8,286046999.0,N
1504568135.7,286047007.1,N
1504568155.5,286047011.8,N
1504568175.3,286047018.1,N
1504568195.2,286047017.7,N
1504568215.9,286047017.9,N
1504568235.7,286047018.9,N
1504568255.6,286047022.8,N
1504568275.4,286047024.1,N
1504568295.2,286047022.9,N
1504568315.1,286047022.7,N
1504568316.0,286047022.7,N
1504568335.8,286047026.4,N
1504568355.6,286047023.4,N
1504568375.5,286047021.5,N
1504568395.3,286047022.9,N
1504568415.1,286047023.6,N
1504568435.8,286047022.7,N
1504568455.7,286047021.4,N
1504568475.5,286047019.9,N
1504568495.3,286047023.1,N
1504568515.2,286047023.0,N
1504568535.0,286047023.3,N
1504568535.9,286047023.3,N
1504568555.7,286047020.1,N
1504568575.6,286047017.6,N
1504568595.4,286047020.1,N
1504568615.2,286047021.2,N
1504568635.1,286047022.4,N
1504568636.0,286047022.4,P
1504568655.8,286047002.1,N
1504568675.6,286047004.8,N
1504568695.5,286047003.1,N
1504568715.3,286047003.2,N
1504568735.1,286047003.1,N
1504568755.9,286047003.1,N
1504568775.7,286047003.0,N
1504568795.5,286047006.9,N
1504568815.4,286047006.6,N
1504568835.2,286047005.0,N
1504568855.0,286047006.2,N
1504568855.9,286047006.2,N
1504568875.8,286047005.4,N
1504568895.6,286047006.4,N
1504568915.4,286047008.0,N
1504568935.3,286047009.1,N
1504568955.1,286047004.7,N
1504568956.0,286047004.7,N
1504568975.8,286047003.3,N
1504568995.6,286047009.2,N
1504569015.5,286047011.9,N
1504569035.3,286047008.0,N
1504569055.1,286047008.6,N
1504569075.9,286047008.2,N
1504569095.7,286047012.2,N
1504569115.5,286047008.4,N
1504569135.4,286047002.9,N
1504569155.2,286047000.5,N
1504569175.0,286046997.1,N
1504569175.9,286046997.1,N
1504569195.8,286046994.3,N
1504569215.6,286046993.0,N
1504569235.4,286046991.5,N
1504569255.3,286046985.4,N
1504569275.1,286046987.9,N
1504569276.0,286046987.9,N
1504569295.8,286046987.1,N
1504569315.7,286046988.3,N
1504569335.5,286046984.7,N
1504569355.3,286046981.0,N
1504569375.1,286046979.8,N
1504569395.9,286046979.0,N
1504569415.7,286046977.7,N
1504569435.5,286046978.6,N
1504569455.4,286046977.6,N
1504569475.2,286046977.5,N
1504569495.0,286046975.7,N
1504569495.9,286046975.7,N
1504569515.8,286046976.0,N
1504569535.6,286046975.7,N
1504569555.4,286046975.7,N
1504569575.3,286046980.3,N
1504569595.1,286046975.9,N
1504569596.0,286046975.9,N
